Tracking 34171 objects as of 21-May-2026
HD Live streaming from Space Station
objects crossing your sky now

ATLAS 5 CENTAUR DEB

Track ATLAS 5 CENTAUR DEB now!


NORAD ID: 46601
Int'l Code: 2018-079BZ
Perigee: 8,805.6 km
Apogee: 34,346.6 km
Inclination: 13.0 °
Period: 774.9 minutes
Semi major axis: 27947 km
RCS: Unknown
Launch date: October 17, 2018
Source: United States (US)
Launch site: AIR FORCE EASTERN TEST RANGE (AFETR)

Note: This is SATELLITE DEBRIS
Your satellite tracking list
Your tracking list is empty




NASA's NSSDC Master Catalog

Two Line Element Set (TLE):
1 46601U 18079BZ  26140.47661045 -.00000123  00000-0  00000-0 0  9995
2 46601  12.9843  38.6812 4569529 315.9977  15.6266  1.85822467 40985
Source of the keplerian elements: AFSPC